Regional Weather Roundup
Issued by NWS

Home | Current Version | Previous Version | Text Only | Print | Product List | Glossary Off
Versions: 1 2 3 4 5 6 7 8 9 10 11 12 13 14 15 16 17 18 19 20 21 22 23 24 25 26 27 28 29 30 31 32 33 34 35 36 37 38 39 40 41 42 43 44 45 46 47 48 49 50

000
ASUS43 KMKX 310000
RWRWI

WISCONSIN REGIONAL WEATHER ROUNDUP
NATIONAL WEATHER SERVICE MILWAUKEE/SULLIVAN WI
700 PM CDT WED JUL 30 2014

NOTE: "FAIR" INDICATES FEW OR NO CLOUDS BELOW 12,000 FEET WITH NO
SIGNIFICANT WEATHER AND/OR OBSTRUCTIONS TO VISIBILITY.

WIZ001-002-006>008-014>016-023>028-310100-
NORTHWEST WISCONSIN

CITY           SKY/WX    TMP DP  RH WIND       PRES   REMARKS
SUPERIOR ARPT  SUNNY     77  59  54 NW12      29.96R
ASHLAND        MOSUNNY   69  61  75 SW6       29.97F
6HR MIN TEMP:  68; 6HR MAX TEMP:  75;

HAYWARD        PTSUNNY   71  61  70 SW6       30.00R
6HR MIN TEMP:  67; 6HR MAX TEMP:  73; 6HR PCP: TRACE;

SIREN          SUNNY     76  57  51 W12       30.00F
RICE LAKE      MOSUNNY   66  61  85 CALM      30.03F
LADYSMITH      MOSUNNY   71  61  70 W7        30.02S
EAU CLAIRE     CLOUDY    75  57  53 W9        30.00S
MENOMONIE      PTCLDY    76  57  51 SW7       30.00F
NEW RICHMOND   SUNNY     76  55  48 W9        30.02F
OSCEOLA        MOSUNNY   77  57  50 W8        30.04S
$$

WIZ003>005-009-010-017-018-310100-
NORTH CENTRAL WISCONSIN

CITY           SKY/WX    TMP DP  RH WIND       PRES   REMARKS
WOODRUFF       PTSUNNY   72  59  63 W6        29.98F
RHINELANDER    PTSUNNY   68  55  63 SW7       29.99F
6HR MIN TEMP:  67; 6HR MAX TEMP:  73;

EAGLE RIVER    PTSUNNY   65  55  69 NE3       29.99R
LAND O LAKES   PTSUNNY   57  56  95 CALM      30.01R
PHILLIPS       PTSUNNY   69  58  67 SW3       29.99F THUNDER
TOMAHAWK       MOSUNNY   67  54  64 CALM      30.00F
MEDFORD        SUNNY     68  56  65 W7        30.02S
MERRILL        MOSUNNY   70  55  58 W6        30.00S
$$

WIZ029-030-035-036-043>047-310100-
CENTRAL WISCONSIN

CITY           SKY/WX    TMP DP  RH WIND       PRES   REMARKS
WAUSAU         SUNNY     72  52  49 W12       29.98F
6HR MIN TEMP:  70; 6HR MAX TEMP:  74;

MOSINEE        MOSUNNY   72  54  53 W10G18    30.01F
MARSHFIELD     MOSUNNY   70  57  63 W6        30.01F
6HR MIN TEMP:  70; 6HR MAX TEMP:  75;

STEVENS POINT  SUNNY     71  51  48 W9G16     30.01F
WAUPACA        SUNNY     76  47  35 W7        29.99F
WAUTOMA        NOT AVBL
WISC RAPIDS    MOSUNNY   72  53  51 W5        30.02F
6HR MIN TEMP:  72; 6HR MAX TEMP:  77;

CAMP DOUGLAS   NOT AVBL
$$

WIZ011>013-019>022-031-037>040-048>050-310100-
NORTHEAST WISCONSIN

CITY           SKY/WX    TMP DP  RH WIND       PRES   REMARKS
ANTIGO         MOSUNNY   67  53  61 W6        29.99S
STURGEON BAY   MOSUNNY   64  52  63 S9        29.98S
6HR MIN TEMP:  64; 6HR MAX TEMP:  72;

GREEN BAY      MOSUNNY   71  53  52 W6        29.97F
6HR MIN TEMP:  70; 6HR MAX TEMP:  76;

MANITOWOC      NOT AVBL
APPLETON       MOSUNNY   72  46  40 W8        29.98F
CLINTONVILLE   SUNNY     73  46  38 W8        29.98S
OSHKOSH        SUNNY     73  51  46 W6        29.98F
6HR MIN TEMP:  70; 6HR MAX TEMP:  75;

$$

WIZ032>034-041-042-053>061-310100-
SOUTHWEST WISCONSIN

CITY           SKY/WX    TMP DP  RH WIND       PRES   REMARKS
LA CROSSE      SUNNY     77  58  51 SW3       30.01F
6HR MIN TEMP:  74; 6HR MAX TEMP:  80;

SPARTA         SUNNY     74  55  52 W5        30.03F
VIROQUA        FAIR      72  59  62 CALM      30.05F
BOSCOBEL       SUNNY     77  56  48 CALM      30.03F
6HR MIN TEMP:  77; 6HR MAX TEMP:  83;

PRAIRIE DU CHI SUNNY     77  53  42 NW7       30.03S
PLATTEVILLE    FAIR      74  55  50 NW10      30.05S
$$

WIZ056-057-062-063-064-067-068-310100-
SOUTH CENTRAL WISCONSIN

CITY           SKY/WX    TMP DP  RH WIND       PRES   REMARKS
BARABOO/DELLS  SUNNY     73  48  41 W8G16     30.03S
LONE ROCK      NOT AVBL
WATERTOWN      SUNNY     72  54  52 W3        30.01F
MADISON        MOSUNNY   74  51  44 NW6       30.01F
6HR MIN TEMP:  71; 6HR MAX TEMP:  78;

MIDDLETON      FAIR      75  49  40 NW5       30.02F
MONROE         SUNNY     73  50  43 NW6       30.02F
JANESVILLE     SUNNY     75  52  43 NW6       30.01S
$$

WIZ051-052-058>065-066-070>072-310100-
SOUTHEAST WISCONSIN

CITY           SKY/WX    TMP DP  RH WIND       PRES   REMARKS
MILWAUKEE      MOSUNNY   68  53  58 SE7       30.01S
6HR MIN TEMP:  67; 6HR MAX TEMP:  69;

WAUKESHA       MOSUNNY   70  50  49 W8        30.02S
MILWAUKEE/TIMM SUNNY     72  54  53 SW3       30.01F
RACINE         SUNNY     67  50  54 E5        30.03S
6HR MIN TEMP:  67; 6HR MAX TEMP:  71;

BURLINGTON     SUNNY     70  50  48 NW6       30.01S
KENOSHA        SUNNY     66  56  70 E7        30.02S
6HR MIN TEMP:  66; 6HR MAX TEMP:  74;

FOND DU LAC    SUNNY     72  54  53 SW7       29.99F
6HR MIN TEMP:  70; 6HR MAX TEMP:  75;

SHEBOYGAN      SUNNY     68  54  60 SE6       29.99F
6HR MIN TEMP:  68; 6HR MAX TEMP:  74;

WEST BEND      SUNNY     72  45  37 W6        30.00F
JUNEAU         SUNNY     70  50  49 SW6       30.02F
$$

LSZ147-162-310100-
LAKE SUPERIOR

STATION/POSITION TIME  TEMP    WIND        PRES    WAVE
                       AIR SEA DIR/SP/G            HT/PER
                 (UTC) (F)     (DEG/KT/KT) (MB)    (FT/S)
W MID LAKE BUOY  2250   49 44  140/  6/  8 1014.1F   1/ 3
PORT WING        2300   72      CALM  /  2 1014.2F
SAXON HARBOR     2300          180/  5/ 11 1014.6S
$$

LMZ867-665-643>646-310100-
LAKE MICHIGAN

STATION/POSITION TIME  TEMP    WIND        PRES    WAVE
                       AIR SEA DIR/SP/G            HT/PER
                 (UTC) (F)     (DEG/KT/KT) (MB)    (FT/S)
N MID LAKE BUOY  2250   57 55  200/  8/ 10 1014.6F   0
NORTHPORT PIER   2300   65     160/  7/ 11 1014.6F
SISTER BAY       2225   68     190/ 13/ 14   N/A
KEWAUNEE LAKESHO 2300   59     180/ 10/ 12 1015.4F
SHEBOYGAN LAKESH 2300   63     170/  8/  9 1016.1F
PORT WASHINGTON  2300   67     190/  3/  7 1016.9
ATWATER BUOY     2300   63     160/  6     1017.4F
MILWAUKEE LAKESH 2300   63     140/  3/  4   N/A
S MID LAKE BUOY  2250   62 62   10/  2/  2 1016.5F   1
KENOSHA   LAKESH 2300   67      90/  4/  4 1016.3F
$$

TC  - TEMPERATURE IN CELSIUS
VSB - VISIBILITY IN STATUTE MILES
WCI - WIND CHILL INDEX
HX  - HEAT INDEX



USA.gov is the U.S. government's official web portal to all federal, state and local government web resources and services.